Вернуться в каталог

FLOCK 4BE 5

АктивенНаукаSSO
NORAD 60559·PAYLOAD·🇺🇸 United States

Запущен Aug 16, 2024 с Vandenberg Space Force Base

Loading…

Ближайшие Пролёты (ближайшие 24 часа)

TLE

СвежийSource: CelesTrak SupGP

Эпоха: Sep 14, 2026, 16:45 UTC

1 60559C 24149AW  26257.69798611  .00039786  00000+0  90054-3 0  2574
2 60559  97.3795 342.6973 0002225 341.6238 163.7754 15.43132868    14

Отслеживайте FLOCK 4BE 5 в реальном времени с AllMySat

Download on the App Store